Location: Unspecified
(0.0000°N, 0.0000°E)
Time: 23:43:43
(UTC+00:00)

S-56A Canister/Altair - Pass Details

Date: 03 October 2020
Orbit: 633 x 2499 km, 38.9° (Epoch: 28 October)

Event Time Altitude Azimuth Distance (km) Brightness Sun altitude
Rises 23:11:28 0° 282° (WNW) 4,222 - -79.7°
Reaches altitude 10° 23:15:56 10° 263° (W) 2,873 - -80.7°
Maximum altitude 23:19:51 16° 227° (SW) 2,155 - -81.5°
Drops below altitude 10° 23:23:09 10° 188° (S) 2,333 - -82.2°
Sets 23:26:15 0° 165° (SSE) 3,082 - -82.8°
